Flag for Italy Weather past 2 weeks in Bolzano, Italy

Now
63 °F

Sunny.


Feels Like: 63 °F
Forecast: 43 / 71 °F
Wind: 1 mph from North

Location: Bolzano


UV Index: 3 (Moderate)

Visibility: 10 mi


Pressure: 30.07 "Hg

Humidity: 64%

Dew point: 50 °F

Location of BolzanoLocation

Historic Weather in Bolzano

°F

Bolzano temperature yesterday

Maximum temperature yesterday: 73 °F (at 2:50 PM)
Minimum temperature yesterday: 50 °F (at 5:50 AM)
Average temperature yesterday: 62 °F

Past Weeks' High & Low Weather Summary

 TemperatureHumidityPressure
High84 °F (Apr 9, 7:50 PM)100% (Apr 8, 9:50 PM)30.24 "Hg (Apr 8, 9:50 PM)
Low37 °F (Apr 17, 5:50 AM)10% (Apr 9, 7:50 PM)29.65 "Hg (Apr 20, 2:50 PM)
Average59 °F56%29.94 "Hg
* Reported Apr 8 9:50 AM — Apr 23 9:50 AM, Bolzano, Weather by CustomWeather, © 2014

Note: Actual official high and low records may vary slightly from our data, if they occured in-between our weather recording intervals... More about our weather records

Advertising

Historic Weather Conditions — Data for Previous 24 hours

 ConditionsComfort  
Time TempWeatherWind HumidityBarometerVisibility
9:50 AM
Apr 23
63 °FSunny.1 mph64%30.07 "Hg10 mi
8:50 AM55 °FSunny.1 mph82%30.07 "Hg10 mi
6:50 AM46 °FPassing clouds.2 mph100%30.07 "HgN/A
5:50 AM48 °FPassing clouds.1 mph94%30.07 "HgN/A
10:50 PM
Apr 22
55 °FClear.1 mph82%29.98 "Hg10 mi
9:50 PM57 °FClear.1 mph77%29.98 "Hg10 mi
8:50 PM63 °FSunny.5 mph59%29.92 "Hg10 mi
7:50 PM66 °FScattered clouds.3 mph56%29.89 "HgN/A
6:50 PM70 °FScattered clouds.6 mph50%29.86 "HgN/A
5:50 PM73 °FPassing clouds.5 mph41%29.86 "HgN/A
4:50 PM73 °FScattered clouds.3 mph41%29.86 "HgN/A
3:50 PM70 °FScattered clouds.3 mph43%29.86 "HgN/A
2:50 PM73 °FScattered clouds.5 mph41%29.89 "HgN/A
1:50 PM70 °FPassing clouds.2 mph46%29.89 "HgN/A
12:50 PM68 °FPassing clouds.2 mph49%29.92 "HgN/A
11:50 AM64 °FPassing clouds.5 mph56%29.92 "HgN/A
10:50 AM59 °FScattered clouds.3 mph72%29.92 "HgN/A
Weather by CustomWeather, © 2014

See weather overview